Time,TemperatureF,DewpointF,PressureIn,WindDirection,WindDirectionDegrees,WindSpeedMPH,WindSpeedGustMPH,Humidity,HourlyPrecipIn,Conditions,Clouds,dailyrainin,SoftwareType,DateUTC
2013-03-05 00:00:00,30.7,21.7,29.92,NW,320,4.0,10.0,69,0.00,,,0.00,HR-IXPWINDi_r2_v1.2.,2013-03-05 05:00:00,
2013-03-05 00:05:00,30.7,22.1,29.93,NW,307,1.0,8.0,70,0.00,,,0.00,HR-IXPWINDi_r2_v1.2.,2013-03-05 05:05:00,
2013-03-05 00:10:00,30.6,22.0,29.93,WSW,243,2.0,8.0,70,0.00,,,0.00,HR-IXPWINDi_r2_v1.2.,2013-03-05 05:10:00,
2013-03-05 00:15:00,30.6,22.0,29.93,SSW,213,6.0,6.0,70,0.00,,,0.00,HR-IXPWINDi_r2_v1.2.,2013-03-05 05:15:00,
2013-03-05 00:21:00,30.7,22.1,29.93,WSW,252,4.0,8.0,70,0.00,,,0.00,HR-IXPWINDi_r2_v1.2.,2013-03-05 05:21:00,
2013-03-05 00:26:00,30.8,22.2,29.93,NNW,340,2.0,8.0,70,0.00,,,0.00,HR-IXPWINDi_r2_v1.2.,2013-03-05 05:26:00,
2013-03-05 00:31:00,30.8,22.2,29.93,West,261,1.0,6.0,70,0.00,,,0.00,HR-IXPWINDi_r2_v1.2.,2013-03-05 05:31:00,
2013-03-05 00:36:00,30.8,22.2,29.93,WNW,290,1.0,8.0,70,0.00,,,0.00,HR-IXPWINDi_r2_v1.2.,2013-03-05 05:36:00,
2013-03-05 00:41:00,30.9,22.3,29.94,WNW,287,5.0,10.0,70,0.00,,,0.00,HR-IXPWINDi_r2_v1.2.,2013-03-05 05:41:00,
2013-03-05 00:47:00,30.9,22.3,29.94,SW,231,4.0,10.0,70,0.00,,,0.00,HR-IXPWINDi_r2_v1.2.,2013-03-05 05:47:00,
2013-03-05 00:52:00,30.9,22.3,29.94,SE,145,5.0,7.0,70,0.00,,,0.00,HR-IXPWINDi_r2_v1.2.,2013-03-05 05:52:00,
2013-03-05 00:57:00,30.9,22.6,29.94,West,272,2.0,7.0,71,0.00,,,0.00,HR-IXPWINDi_r2_v1.2.,2013-03-05 05:57:00,
2013-03-05 01:02:00,30.9,22.3,29.94,WNW,285,5.0,7.0,70,0.00,,,0.00,HR-IXPWINDi_r2_v1.2.,2013-03-05 06:02:00,
2013-03-05 01:08:00,30.9,22.3,29.94,NW,317,4.0,9.0,70,0.00,,,0.00,HR-IXPWINDi_r2_v1.2.,2013-03-05 06:08:00,
2013-03-05 01:13:00,30.9,22.6,29.94,WSW,257,1.0,9.0,71,0.00,,,0.00,HR-IXPWINDi_r2_v1.2.,2013-03-05 06:13:00,
2013-03-05 01:18:00,30.9,22.3,29.94,WSW,237,2.0,7.0,70,0.00,,,0.00,HR-IXPWINDi_r2_v1.2.,2013-03-05 06:18:00,
2013-03-05 01:23:00,30.9,22.3,29.94,West,271,2.0,6.0,70,0.00,,,0.00,HR-IXPWINDi_r2_v1.2.,2013-03-05 06:23:00,
2013-03-05 01:28:00,30.9,22.6,29.94,SW,236,1.0,5.0,71,0.00,,,0.00,HR-IXPWINDi_r2_v1.2.,2013-03-05 06:28:00,
2013-03-05 01:34:00,30.8,22.5,29.94,West,280,3.0,7.0,71,0.00,,,0.00,HR-IXPWINDi_r2_v1.2.,2013-03-05 06:34:00,
2013-03-05 01:39:00,30.9,22.6,29.95,WSW,242,2.0,7.0,71,0.00,,,0.00,HR-IXPWINDi_r2_v1.2.,2013-03-05 06:39:00,
2013-03-05 01:44:00,30.9,22.6,29.95,West,261,2.0,5.0,71,0.00,,,0.00,HR-IXPWINDi_r2_v1.2.,2013-03-05 06:44:00,
2013-03-05 01:49:00,30.9,22.6,29.95,West,276,0.0,6.0,71,0.00,,,0.00,HR-IXPWINDi_r2_v1.2.,2013-03-05 06:49:00,
2013-03-05 01:54:00,30.9,22.6,29.94,WSW,254,2.0,6.0,71,0.00,,,0.00,HR-IXPWINDi_r2_v1.2.,2013-03-05 06:54:00,
2013-03-05 02:00:00,30.9,22.6,29.94,SW,214,2.0,8.0,71,0.00,,,0.00,HR-IXPWINDi_r2_v1.2.,2013-03-05 07:00:00,
2013-03-05 02:05:00,30.9,22.6,29.95,NW,318,0.0,8.0,71,0.00,,,0.00,HR-IXPWINDi_r2_v1.2.,2013-03-05 07:05:00,
2013-03-05 02:10:00,30.8,22.5,29.95,WNW,286,3.0,6.0,71,0.00,,,0.00,HR-IXPWINDi_r2_v1.2.,2013-03-05 07:10:00,
2013-03-05 02:15:00,30.8,22.5,29.95,NW,311,1.0,5.0,71,0.00,,,0.00,HR-IXPWINDi_r2_v1.2.,2013-03-05 07:15:00,
2013-03-05 02:21:00,31.0,22.7,29.95,SW,216,3.0,6.0,71,0.00,,,0.00,HR-IXPWINDi_r2_v1.2.,2013-03-05 07:21:00,
2013-03-05 02:26:00,31.0,22.7,29.95,NW,304,1.0,8.0,71,0.00,,,0.00,HR-IXPWINDi_r2_v1.2.,2013-03-05 07:26:00,
2013-03-05 02:31:00,31.1,22.8,29.95,NW,316,0.0,8.0,71,0.00,,,0.00,HR-IXPWINDi_r2_v1.2.,2013-03-05 07:31:00,
2013-03-05 02:36:00,31.0,22.7,29.95,NW,304,8.0,8.0,71,0.00,,,0.00,HR-IXPWINDi_r2_v1.2.,2013-03-05 07:36:00,
2013-03-05 02:41:00,31.1,22.8,29.95,WSW,245,1.0,8.0,71,0.00,,,0.00,HR-IXPWINDi_r2_v1.2.,2013-03-05 07:41:00,
2013-03-05 02:46:00,31.1,22.8,29.95,SW,221,2.0,8.0,71,0.00,,,0.00,HR-IXPWINDi_r2_v1.2.,2013-03-05 07:46:00,
2013-03-05 02:52:00,31.2,22.9,29.95,SSW,200,2.0,7.0,71,0.00,,,0.00,HR-IXPWINDi_r2_v1.2.,2013-03-05 07:52:00,
2013-03-05 02:57:00,31.1,22.5,29.95,SSW,199,0.0,7.0,70,0.00,,,0.00,HR-IXPWINDi_r2_v1.2.,2013-03-05 07:57:00,
2013-03-05 03:02:00,31.0,22.7,29.95,SSW,212,3.0,5.0,71,0.00,,,0.00,HR-IXPWINDi_r2_v1.2.,2013-03-05 08:02:00,
2013-03-05 03:07:00,31.1,22.5,29.95,WSW,250,1.0,4.0,70,0.00,,,0.00,HR-IXPWINDi_r2_v1.2.,2013-03-05 08:07:00,
2013-03-05 03:12:00,31.0,22.4,29.95,SSW,211,3.0,4.0,70,0.00,,,0.00,HR-IXPWINDi_r2_v1.2.,2013-03-05 08:12:00,
2013-03-05 03:18:00,31.1,22.5,29.95,SW,221,2.0,7.0,70,0.00,,,0.00,HR-IXPWINDi_r2_v1.2.,2013-03-05 08:18:00,
2013-03-05 03:23:00,31.1,22.5,29.95,WNW,282,2.0,8.0,70,0.00,,,0.00,HR-IXPWINDi_r2_v1.2.,2013-03-05 08:23:00,
2013-03-05 03:28:00,31.1,22.5,29.95,NW,309,3.0,8.0,70,0.00,,,0.00,HR-IXPWINDi_r2_v1.2.,2013-03-05 08:28:00,
2013-03-05 03:33:00,31.1,22.8,29.95,SW,218,2.0,11.0,71,0.00,,,0.00,HR-IXPWINDi_r2_v1.2.,2013-03-05 08:33:00,
2013-03-05 03:38:00,30.9,22.6,29.96,WSW,237,1.0,11.0,71,0.00,,,0.00,HR-IXPWINDi_r2_v1.2.,2013-03-05 08:38:00,
2013-03-05 03:44:00,30.8,22.5,29.96,WSW,251,3.0,5.0,71,0.00,,,0.00,HR-IXPWINDi_r2_v1.2.,2013-03-05 08:44:00,
2013-03-05 03:49:00,30.9,22.6,29.96,SW,226,3.0,8.0,71,0.00,,,0.00,HR-IXPWINDi_r2_v1.2.,2013-03-05 08:49:00,
2013-03-05 03:54:00,30.9,22.6,29.96,SW,219,0.0,8.0,71,0.00,,,0.00,HR-IXPWINDi_r2_v1.2.,2013-03-05 08:54:00,
2013-03-05 03:59:00,30.8,22.8,29.96,WSW,254,0.0,5.0,72,0.00,,,0.00,HR-IXPWINDi_r2_v1.2.,2013-03-05 08:59:00,
2013-03-05 04:04:00,30.8,22.8,29.97,SSW,195,3.0,7.0,72,0.00,,,0.00,HR-IXPWINDi_r2_v1.2.,2013-03-05 09:04:00,
2013-03-05 04:10:00,30.9,22.9,29.97,SSW,198,2.0,10.0,72,0.00,,,0.00,HR-IXPWINDi_r2_v1.2.,2013-03-05 09:10:00,
2013-03-05 04:15:00,31.0,22.7,29.97,NW,314,1.0,11.0,71,0.00,,,0.00,HR-IXPWINDi_r2_v1.2.,2013-03-05 09:15:00,
2013-03-05 04:20:00,31.0,23.0,29.97,West,261,1.0,11.0,72,0.00,,,0.00,HR-IXPWINDi_r2_v1.2.,2013-03-05 09:20:00,
2013-03-05 04:25:00,30.9,22.9,29.97,SE,141,2.0,7.0,72,0.00,,,0.00,HR-IXPWINDi_r2_v1.2.,2013-03-05 09:25:00,
2013-03-05 04:30:00,30.9,22.9,29.97,NNW,342,4.0,7.0,72,0.00,,,0.00,HR-IXPWINDi_r2_v1.2.,2013-03-05 09:30:00,
2013-03-05 04:36:00,30.8,22.8,29.98,WSW,248,3.0,8.0,72,0.00,,,0.00,HR-IXPWINDi_r2_v1.2.,2013-03-05 09:36:00,
2013-03-05 04:41:00,30.7,22.7,29.98,WNW,285,1.0,8.0,72,0.00,,,0.00,HR-IXPWINDi_r2_v1.2.,2013-03-05 09:41:00,
2013-03-05 04:46:00,30.5,22.9,29.98,NW,317,0.0,4.0,73,0.00,,,0.00,HR-IXPWINDi_r2_v1.2.,2013-03-05 09:46:00,
2013-03-05 04:51:00,30.4,22.8,29.98,West,269,0.0,4.0,73,0.00,,,0.00,HR-IXPWINDi_r2_v1.2.,2013-03-05 09:51:00,
2013-03-05 04:57:00,30.3,22.7,29.99,West,275,0.0,3.0,73,0.00,,,0.00,HR-IXPWINDi_r2_v1.2.,2013-03-05 09:57:00,
2013-03-05 05:02:00,30.1,22.5,29.99,West,266,1.0,3.0,73,0.00,,,0.00,HR-IXPWINDi_r2_v1.2.,2013-03-05 10:02:00,
2013-03-05 05:07:00,30.0,22.7,29.99,WSW,249,0.0,2.0,74,0.00,,,0.00,HR-IXPWINDi_r2_v1.2.,2013-03-05 10:07:00,
2013-03-05 05:12:00,29.8,22.5,29.99,WSW,250,0.0,2.0,74,0.00,,,0.00,HR-IXPWINDi_r2_v1.2.,2013-03-05 10:12:00,
2013-03-05 05:17:00,29.4,22.5,29.99,NW,314,0.0,2.0,75,0.00,,,0.00,HR-IXPWINDi_r2_v1.2.,2013-03-05 10:17:00,
2013-03-05 05:23:00,29.3,22.7,29.99,NW,314,0.0,2.0,76,0.00,,,0.00,HR-IXPWINDi_r2_v1.2.,2013-03-05 10:23:00,
2013-03-05 05:28:00,29.4,22.5,29.99,NNW,345,0.0,3.0,75,0.00,,,0.00,HR-IXPWINDi_r2_v1.2.,2013-03-05 10:28:00,
2013-03-05 05:33:00,29.4,22.5,29.99,SW,216,0.0,3.0,75,0.00,,,0.00,HR-IXPWINDi_r2_v1.2.,2013-03-05 10:33:00,
2013-03-05 05:38:00,29.2,22.3,30.00,SW,216,0.0,0.0,75,0.00,,,0.00,HR-IXPWINDi_r2_v1.2.,2013-03-05 10:38:00,
2013-03-05 05:43:00,29.1,22.2,30.00,SW,216,0.0,0.0,75,0.00,,,0.00,HR-IXPWINDi_r2_v1.2.,2013-03-05 10:43:00,
2013-03-05 05:48:00,29.0,22.4,30.00,SW,218,0.0,1.0,76,0.00,,,0.00,HR-IXPWINDi_r2_v1.2.,2013-03-05 10:48:00,
2013-03-05 05:53:00,28.9,22.3,30.00,SW,219,0.0,1.0,76,0.00,,,0.00,HR-IXPWINDi_r2_v1.2.,2013-03-05 10:53:00,
2013-03-05 05:59:00,29.0,22.4,30.00,WSW,254,0.0,4.0,76,0.00,,,0.00,HR-IXPWINDi_r2_v1.2.,2013-03-05 10:59:00,
2013-03-05 06:04:00,29.1,22.5,30.01,NW,307,0.0,4.0,76,0.00,,,0.00,HR-IXPWINDi_r2_v1.2.,2013-03-05 11:04:00,
2013-03-05 06:09:00,29.1,22.5,30.01,West,262,0.0,2.0,76,0.00,,,0.00,HR-IXPWINDi_r2_v1.2.,2013-03-05 11:09:00,
2013-03-05 06:14:00,29.2,22.6,30.01,WSW,244,0.0,1.0,76,0.00,,,0.00,HR-IXPWINDi_r2_v1.2.,2013-03-05 11:14:00,
2013-03-05 06:19:00,29.0,22.1,30.01,WSW,244,0.0,1.0,75,0.00,,,0.00,HR-IXPWINDi_r2_v1.2.,2013-03-05 11:19:00,
2013-03-05 06:24:00,28.8,22.2,30.01,WSW,244,0.0,1.0,76,0.00,,,0.00,HR-IXPWINDi_r2_v1.2.,2013-03-05 11:24:00,
2013-03-05 06:30:00,28.8,22.2,30.01,WSW,244,0.0,1.0,76,0.00,,,0.00,HR-IXPWINDi_r2_v1.2.,2013-03-05 11:30:00,
2013-03-05 06:35:00,28.6,22.0,30.01,WSW,244,0.0,0.0,76,0.00,,,0.00,HR-IXPWINDi_r2_v1.2.,2013-03-05 11:35:00,
2013-03-05 06:40:00,28.4,21.8,30.02,WSW,244,0.0,0.0,76,0.00,,,0.00,HR-IXPWINDi_r2_v1.2.,2013-03-05 11:40:00,
2013-03-05 06:45:00,28.1,22.1,30.02,WSW,244,0.0,0.0,78,0.00,,,0.00,HR-IXPWINDi_r2_v1.2.,2013-03-05 11:45:00,
2013-03-05 06:50:00,28.0,22.0,30.02,WSW,244,0.0,0.0,78,0.00,,,0.00,HR-IXPWINDi_r2_v1.2.,2013-03-05 11:50:00,
2013-03-05 06:55:00,28.0,22.0,30.02,WSW,245,0.0,0.0,78,0.00,,,0.00,HR-IXPWINDi_r2_v1.2.,2013-03-05 11:55:00,
2013-03-05 07:01:00,28.2,22.5,30.03,WSW,245,0.0,0.0,79,0.00,,,0.00,HR-IXPWINDi_r2_v1.2.,2013-03-05 12:01:00,
2013-03-05 07:07:00,28.8,22.8,30.03,WSW,245,0.0,0.0,78,0.00,,,0.00,HR-IXPWINDi_r2_v1.2.,2013-03-05 12:07:00,
2013-03-05 07:12:00,29.6,23.6,30.03,WSW,244,0.0,0.0,78,0.00,,,0.00,HR-IXPWINDi_r2_v1.2.,2013-03-05 12:12:00,
2013-03-05 07:18:00,30.1,23.4,30.03,North,351,0.0,2.0,76,0.00,,,0.00,HR-IXPWINDi_r2_v1.2.,2013-03-05 12:18:00,
2013-03-05 07:23:00,30.5,23.5,30.03,NW,324,0.0,2.0,75,0.00,,,0.00,HR-IXPWINDi_r2_v1.2.,2013-03-05 12:23:00,
2013-03-05 07:28:00,30.7,23.4,30.04,SW,229,1.0,2.0,74,0.00,,,0.00,HR-IXPWINDi_r2_v1.2.,2013-03-05 12:28:00,
2013-03-05 07:33:00,30.8,23.5,30.04,West,280,0.0,1.0,74,0.00,,,0.00,HR-IXPWINDi_r2_v1.2.,2013-03-05 12:33:00,
2013-03-05 07:38:00,30.8,23.5,30.04,West,276,0.0,1.0,74,0.00,,,0.00,HR-IXPWINDi_r2_v1.2.,2013-03-05 12:38:00,
2013-03-05 07:44:00,31.1,24.1,30.04,West,276,0.0,1.0,75,0.00,,,0.00,HR-IXPWINDi_r2_v1.2.,2013-03-05 12:44:00,
2013-03-05 07:49:00,31.0,23.4,30.04,NW,321,0.0,2.0,73,0.00,,,0.00,HR-IXPWINDi_r2_v1.2.,2013-03-05 12:49:00,
2013-03-05 07:54:00,31.0,23.7,30.04,NW,321,0.0,2.0,74,0.00,,,0.00,HR-IXPWINDi_r2_v1.2.,2013-03-05 12:54:00,
2013-03-05 07:59:00,31.2,23.9,30.05,NW,321,0.0,1.0,74,0.00,,,0.00,HR-IXPWINDi_r2_v1.2.,2013-03-05 12:59:00,
2013-03-05 08:04:00,31.4,23.7,30.05,NW,321,0.0,1.0,73,0.00,,,0.00,HR-IXPWINDi_r2_v1.2.,2013-03-05 13:04:00,
2013-03-05 08:09:00,31.7,24.4,30.05,NNW,342,0.0,2.0,74,0.00,,,0.00,HR-IXPWINDi_r2_v1.2.,2013-03-05 13:09:00,
2013-03-05 08:14:00,32.0,24.3,30.05,ENE,58,0.0,2.0,73,0.00,,,0.00,HR-IXPWINDi_r2_v1.2.,2013-03-05 13:14:00,
2013-03-05 08:20:00,32.2,24.5,30.04,NE,56,1.0,3.0,73,0.00,,,0.00,HR-IXPWINDi_r2_v1.2.,2013-03-05 13:20:00,
2013-03-05 08:25:00,32.4,24.4,30.05,ENE,65,0.0,3.0,72,0.00,,,0.00,HR-IXPWINDi_r2_v1.2.,2013-03-05 13:25:00,
2013-03-05 08:30:00,32.7,25.0,30.05,North,5,1.0,5.0,73,0.00,,,0.00,HR-IXPWINDi_r2_v1.2.,2013-03-05 13:30:00,
2013-03-05 08:35:00,32.8,25.1,30.05,South,181,1.0,5.0,73,0.00,,,0.00,HR-IXPWINDi_r2_v1.2.,2013-03-05 13:35:00,
2013-03-05 08:41:00,33.0,25.0,30.05,NNW,337,3.0,5.0,72,0.00,,,0.00,HR-IXPWINDi_r2_v1.2.,2013-03-05 13:41:00,
2013-03-05 08:46:00,32.9,25.2,30.05,ENE,75,0.0,5.0,73,0.00,,,0.00,HR-IXPWINDi_r2_v1.2.,2013-03-05 13:46:00,
2013-03-05 08:51:00,33.5,25.8,30.05,NNW,328,2.0,5.0,73,0.00,,,0.00,HR-IXPWINDi_r2_v1.2.,2013-03-05 13:51:00,
2013-03-05 08:56:00,33.9,25.5,30.05,NNW,341,3.0,5.0,71,0.00,,,0.00,HR-IXPWINDi_r2_v1.2.,2013-03-05 13:56:00,
2013-03-05 09:01:00,34.0,25.6,30.04,North,358,2.0,4.0,71,0.00,,,0.00,HR-IXPWINDi_r2_v1.2.,2013-03-05 14:01:00,
2013-03-05 09:07:00,34.4,26.0,30.04,North,356,6.0,6.0,71,0.00,,,0.00,HR-IXPWINDi_r2_v1.2.,2013-03-05 14:07:00,
2013-03-05 09:12:00,34.6,25.8,30.04,SE,126,2.0,6.0,70,0.00,,,0.00,HR-IXPWINDi_r2_v1.2.,2013-03-05 14:12:00,
2013-03-05 09:17:00,35.0,25.5,30.04,WNW,302,0.0,6.0,68,0.00,,,0.00,HR-IXPWINDi_r2_v1.2.,2013-03-05 14:17:00,
2013-03-05 09:23:00,34.8,25.7,30.04,SSE,152,2.0,5.0,69,0.00,,,0.00,HR-IXPWINDi_r2_v1.2.,2013-03-05 14:23:00,
2013-03-05 09:28:00,35.3,25.8,30.04,NW,310,0.0,6.0,68,0.00,,,0.00,HR-IXPWINDi_r2_v1.2.,2013-03-05 14:28:00,
2013-03-05 09:33:00,35.7,26.2,30.04,NE,38,1.0,6.0,68,0.00,,,0.00,HR-IXPWINDi_r2_v1.2.,2013-03-05 14:33:00,
2013-03-05 09:38:00,36.3,26.0,30.04,SW,218,4.0,6.0,66,0.00,,,0.00,HR-IXPWINDi_r2_v1.2.,2013-03-05 14:38:00,
2013-03-05 09:43:00,36.4,26.5,30.04,WSW,242,1.0,6.0,67,0.00,,,0.00,HR-IXPWINDi_r2_v1.2.,2013-03-05 14:43:00,
2013-03-05 09:49:00,36.4,26.1,30.04,SW,223,0.0,6.0,66,0.00,,,0.00,HR-IXPWINDi_r2_v1.2.,2013-03-05 14:49:00,
2013-03-05 09:54:00,36.4,25.7,30.04,North,10,4.0,6.0,65,0.00,,,0.00,HR-IXPWINDi_r2_v1.2.,2013-03-05 14:54:00,
2013-03-05 09:59:00,36.5,26.2,30.03,West,279,2.0,6.0,66,0.00,,,0.00,HR-IXPWINDi_r2_v1.2.,2013-03-05 14:59:00,
2013-03-05 10:04:00,36.5,25.8,30.04,West,273,3.0,6.0,65,0.00,,,0.00,HR-IXPWINDi_r2_v1.2.,2013-03-05 15:04:00,
2013-03-05 10:09:00,36.7,26.0,30.03,North,350,2.0,5.0,65,0.00,,,0.00,HR-IXPWINDi_r2_v1.2.,2013-03-05 15:09:00,
2013-03-05 10:14:00,36.8,26.1,30.03,NW,324,3.0,6.0,65,0.00,,,0.00,HR-IXPWINDi_r2_v1.2.,2013-03-05 15:14:00,
2013-03-05 10:20:00,37.1,26.0,30.03,NE,44,2.0,6.0,64,0.00,,,0.00,HR-IXPWINDi_r2_v1.2.,2013-03-05 15:20:00,
2013-03-05 10:25:00,37.1,26.0,30.03,North,352,3.0,6.0,64,0.00,,,0.00,HR-IXPWINDi_r2_v1.2.,2013-03-05 15:25:00,
2013-03-05 10:30:00,37.1,26.8,30.03,East,82,3.0,6.0,66,0.00,,,0.00,HR-IXPWINDi_r2_v1.2.,2013-03-05 15:30:00,
2013-03-05 10:35:00,37.4,26.3,30.03,NNW,344,4.0,6.0,64,0.00,,,0.00,HR-IXPWINDi_r2_v1.2.,2013-03-05 15:35:00,
2013-03-05 10:40:00,38.0,26.5,30.02,NNE,30,1.0,7.0,63,0.00,,,0.00,HR-IXPWINDi_r2_v1.2.,2013-03-05 15:40:00,
2013-03-05 10:46:00,38.1,26.2,30.02,SE,131,0.0,7.0,62,0.00,,,0.00,HR-IXPWINDi_r2_v1.2.,2013-03-05 15:46:00,
2013-03-05 10:51:00,38.5,27.0,30.02,North,358,2.0,5.0,63,0.00,,,0.00,HR-IXPWINDi_r2_v1.2.,2013-03-05 15:51:00,
2013-03-05 10:56:00,38.5,26.6,30.02,West,266,1.0,6.0,62,0.00,,,0.00,HR-IXPWINDi_r2_v1.2.,2013-03-05 15:56:00,
2013-03-05 11:01:00,39.0,26.7,30.02,NNW,348,4.0,6.0,61,0.00,,,0.00,HR-IXPWINDi_r2_v1.2.,2013-03-05 16:01:00,
2013-03-05 11:06:00,39.2,26.9,30.02,WNW,287,0.0,4.0,61,0.00,,,0.00,HR-IXPWINDi_r2_v1.2.,2013-03-05 16:06:00,
2013-03-05 11:12:00,39.5,26.7,30.01,ENE,58,1.0,7.0,60,0.00,,,0.00,HR-IXPWINDi_r2_v1.2.,2013-03-05 16:12:00,
2013-03-05 11:17:00,39.7,26.5,30.01,North,356,6.0,7.0,59,0.00,,,0.00,HR-IXPWINDi_r2_v1.2.,2013-03-05 16:17:00,
2013-03-05 11:22:00,39.5,26.7,30.01,WNW,303,2.0,6.0,60,0.00,,,0.00,HR-IXPWINDi_r2_v1.2.,2013-03-05 16:22:00,
2013-03-05 11:27:00,40.0,27.2,30.01,North,358,4.0,6.0,60,0.00,,,0.00,HR-IXPWINDi_r2_v1.2.,2013-03-05 16:27:00,
2013-03-05 11:33:00,39.9,27.1,30.01,ENE,62,1.0,6.0,60,0.00,,,0.00,HR-IXPWINDi_r2_v1.2.,2013-03-05 16:33:00,
2013-03-05 11:38:00,40.0,27.6,30.01,ESE,103,1.0,7.0,61,0.00,,,0.00,HR-IXPWINDi_r2_v1.2.,2013-03-05 16:38:00,
2013-03-05 11:43:00,39.9,27.1,30.01,NNW,331,1.0,7.0,60,0.00,,,0.00,HR-IXPWINDi_r2_v1.2.,2013-03-05 16:43:00,
2013-03-05 11:48:00,39.8,27.4,30.01,NNW,335,0.0,7.0,61,0.00,,,0.00,HR-IXPWINDi_r2_v1.2.,2013-03-05 16:48:00,
2013-03-05 11:53:00,40.0,27.6,30.01,North,349,3.0,7.0,61,0.00,,,0.00,HR-IXPWINDi_r2_v1.2.,2013-03-05 16:53:00,
2013-03-05 11:59:00,40.3,27.5,30.01,NNW,348,5.0,7.0,60,0.00,,,0.00,HR-IXPWINDi_r2_v1.2.,2013-03-05 16:59:00,
2013-03-05 12:04:00,40.7,27.5,30.01,East,89,2.0,7.0,59,0.00,,,0.00,HR-IXPWINDi_r2_v1.2.,2013-03-05 17:04:00,
2013-03-05 12:09:00,40.7,27.9,30.01,ENE,75,2.0,11.0,60,0.00,,,0.00,HR-IXPWINDi_r2_v1.2.,2013-03-05 17:09:00,
2013-03-05 12:14:00,41.3,28.0,30.01,South,176,2.0,11.0,59,0.00,,,0.00,HR-IXPWINDi_r2_v1.2.,2013-03-05 17:14:00,
2013-03-05 12:20:00,41.6,27.9,30.01,NNE,18,2.0,10.0,58,0.00,,,0.00,HR-IXPWINDi_r2_v1.2.,2013-03-05 17:20:00,
2013-03-05 12:25:00,42.0,28.7,30.01,NNW,348,1.0,10.0,59,0.00,,,0.00,HR-IXPWINDi_r2_v1.2.,2013-03-05 17:25:00,
2013-03-05 12:30:00,42.0,27.9,30.00,East,79,3.0,7.0,57,0.00,,,0.00,HR-IXPWINDi_r2_v1.2.,2013-03-05 17:30:00,
2013-03-05 12:35:00,42.1,27.9,30.01,NW,325,2.0,7.0,57,0.00,,,0.00,HR-IXPWINDi_r2_v1.2.,2013-03-05 17:35:00,
2013-03-05 12:40:00,42.4,27.8,30.01,SSW,197,1.0,8.0,56,0.00,,,0.00,HR-IXPWINDi_r2_v1.2.,2013-03-05 17:40:00,
2013-03-05 12:45:00,42.1,28.4,30.00,ENE,77,4.0,9.0,58,0.00,,,0.00,HR-IXPWINDi_r2_v1.2.,2013-03-05 17:45:00,
2013-03-05 12:51:00,42.0,28.3,30.00,SSW,200,2.0,9.0,58,0.00,,,0.00,HR-IXPWINDi_r2_v1.2.,2013-03-05 17:51:00,
2013-03-05 12:56:00,42.6,28.0,30.00,ESE,103,1.0,7.0,56,0.00,,,0.00,HR-IXPWINDi_r2_v1.2.,2013-03-05 17:56:00,
2013-03-05 13:01:00,43.1,28.9,30.00,SE,145,2.0,6.0,57,0.00,,,0.00,HR-IXPWINDi_r2_v1.2.,2013-03-05 18:01:00,
2013-03-05 13:06:00,42.9,27.8,30.00,WSW,238,0.0,7.0,55,0.00,,,0.00,HR-IXPWINDi_r2_v1.2.,2013-03-05 18:06:00,
2013-03-05 13:11:00,42.8,27.7,30.00,North,351,6.0,7.0,55,0.00,,,0.00,HR-IXPWINDi_r2_v1.2.,2013-03-05 18:11:00,
2013-03-05 13:16:00,42.3,27.3,30.00,North,359,4.0,9.0,55,0.00,,,0.00,HR-IXPWINDi_r2_v1.2.,2013-03-05 18:16:00,
2013-03-05 13:22:00,42.6,29.3,30.00,ESE,105,5.0,9.0,59,0.00,,,0.00,HR-IXPWINDi_r2_v1.2.,2013-03-05 18:22:00,
2013-03-05 13:27:00,42.8,28.2,30.00,North,354,3.0,11.0,56,0.00,,,0.00,HR-IXPWINDi_r2_v1.2.,2013-03-05 18:27:00,
2013-03-05 13:32:00,42.8,28.2,30.00,ENE,64,2.0,11.0,56,0.00,,,0.00,HR-IXPWINDi_r2_v1.2.,2013-03-05 18:32:00,
2013-03-05 13:37:00,43.2,28.1,30.00,WNW,295,4.0,7.0,55,0.00,,,0.00,HR-IXPWINDi_r2_v1.2.,2013-03-05 18:37:00,
2013-03-05 13:43:00,43.1,28.4,30.00,North,8,1.0,8.0,56,0.00,,,0.00,HR-IXPWINDi_r2_v1.2.,2013-03-05 18:43:00,
2013-03-05 13:48:00,43.3,28.2,30.00,NE,41,3.0,8.0,55,0.00,,,0.00,HR-IXPWINDi_r2_v1.2.,2013-03-05 18:48:00,
2013-03-05 13:53:00,43.5,28.4,30.00,NW,323,1.0,8.0,55,0.00,,,0.00,HR-IXPWINDi_r2_v1.2.,2013-03-05 18:53:00,
2013-03-05 13:58:00,43.4,27.8,30.00,NNW,341,2.0,8.0,54,0.00,,,0.00,HR-IXPWINDi_r2_v1.2.,2013-03-05 18:58:00,
2013-03-05 14:04:00,43.2,28.5,30.00,NNE,16,2.0,7.0,56,0.00,,,0.00,HR-IXPWINDi_r2_v1.2.,2013-03-05 19:04:00,
2013-03-05 14:09:00,43.8,28.7,30.00,NNW,348,2.0,7.0,55,0.00,,,0.00,HR-IXPWINDi_r2_v1.2.,2013-03-05 19:09:00,
2013-03-05 14:14:00,43.9,28.8,30.00,North,354,3.0,9.0,55,0.00,,,0.00,HR-IXPWINDi_r2_v1.2.,2013-03-05 19:14:00,
2013-03-05 14:19:00,43.8,28.2,30.00,East,86,4.0,9.0,54,0.00,,,0.00,HR-IXPWINDi_r2_v1.2.,2013-03-05 19:19:00,
2013-03-05 14:25:00,43.7,28.1,30.00,North,356,5.0,8.0,54,0.00,,,0.00,HR-IXPWINDi_r2_v1.2.,2013-03-05 19:25:00,
2013-03-05 14:30:00,43.6,28.0,30.00,NE,50,4.0,11.0,54,0.00,,,0.00,HR-IXPWINDi_r2_v1.2.,2013-03-05 19:30:00,
2013-03-05 14:35:00,43.8,28.2,30.00,NNW,328,3.0,11.0,54,0.00,,,0.00,HR-IXPWINDi_r2_v1.2.,2013-03-05 19:35:00,
2013-03-05 14:40:00,43.7,28.1,30.00,NW,321,1.0,11.0,54,0.00,,,0.00,HR-IXPWINDi_r2_v1.2.,2013-03-05 19:40:00,
2013-03-05 14:46:00,43.4,27.8,30.00,North,8,4.0,8.0,54,0.00,,,0.00,HR-IXPWINDi_r2_v1.2.,2013-03-05 19:46:00,
2013-03-05 14:51:00,43.3,27.8,30.00,NE,55,1.0,8.0,54,0.00,,,0.00,HR-IXPWINDi_r2_v1.2.,2013-03-05 19:51:00,
2013-03-05 14:56:00,43.3,27.3,30.00,NW,323,1.0,7.0,53,0.00,,,0.00,HR-IXPWINDi_r2_v1.2.,2013-03-05 19:56:00,
2013-03-05 15:01:00,43.1,28.0,30.00,West,276,3.0,8.0,55,0.00,,,0.00,HR-IXPWINDi_r2_v1.2.,2013-03-05 20:01:00,
2013-03-05 15:06:00,43.3,28.2,30.00,North,358,4.0,8.0,55,0.00,,,0.00,HR-IXPWINDi_r2_v1.2.,2013-03-05 20:06:00,
2013-03-05 15:12:00,43.3,28.2,30.00,WNW,296,3.0,8.0,55,0.00,,,0.00,HR-IXPWINDi_r2_v1.2.,2013-03-05 20:12:00,
2013-03-05 15:17:00,43.4,27.8,30.00,North,354,5.0,7.0,54,0.00,,,0.00,HR-IXPWINDi_r2_v1.2.,2013-03-05 20:17:00,
2013-03-05 15:22:00,43.7,28.6,30.01,NNW,331,4.0,7.0,55,0.00,,,0.00,HR-IXPWINDi_r2_v1.2.,2013-03-05 20:22:00,
2013-03-05 15:27:00,43.5,27.5,30.01,NW,324,8.0,10.0,53,0.00,,,0.00,HR-IXPWINDi_r2_v1.2.,2013-03-05 20:27:00,
2013-03-05 15:33:00,43.3,27.8,30.01,NE,34,1.0,10.0,54,0.00,,,0.00,HR-IXPWINDi_r2_v1.2.,2013-03-05 20:33:00,
2013-03-05 15:38:00,43.6,28.0,30.00,North,5,0.0,8.0,54,0.00,,,0.00,HR-IXPWINDi_r2_v1.2.,2013-03-05 20:38:00,
2013-03-05 15:43:00,43.8,28.2,30.00,NW,309,0.0,6.0,54,0.00,,,0.00,HR-IXPWINDi_r2_v1.2.,2013-03-05 20:43:00,
2013-03-05 15:48:00,44.0,27.9,30.00,NW,324,2.0,5.0,53,0.00,,,0.00,HR-IXPWINDi_r2_v1.2.,2013-03-05 20:48:00,
2013-03-05 15:53:00,43.9,28.8,30.00,ENE,75,2.0,5.0,55,0.00,,,0.00,HR-IXPWINDi_r2_v1.2.,2013-03-05 20:53:00,
2013-03-05 15:59:00,44.0,28.4,30.00,North,354,1.0,7.0,54,0.00,,,0.00,HR-IXPWINDi_r2_v1.2.,2013-03-05 20:59:00,
2013-03-05 16:04:00,43.9,27.9,30.00,NW,321,1.0,7.0,53,0.00,,,0.00,HR-IXPWINDi_r2_v1.2.,2013-03-05 21:04:00,
2013-03-05 16:09:00,43.6,28.0,30.00,West,275,3.0,5.0,54,0.00,,,0.00,HR-IXPWINDi_r2_v1.2.,2013-03-05 21:09:00,
2013-03-05 16:14:00,43.3,27.3,30.00,NNW,339,2.0,7.0,53,0.00,,,0.00,HR-IXPWINDi_r2_v1.2.,2013-03-05 21:14:00,
2013-03-05 16:19:00,43.1,27.6,30.00,SSE,150,1.0,7.0,54,0.00,,,0.00,HR-IXPWINDi_r2_v1.2.,2013-03-05 21:19:00,
2013-03-05 16:24:00,43.1,27.6,30.00,North,349,0.0,7.0,54,0.00,,,0.00,HR-IXPWINDi_r2_v1.2.,2013-03-05 21:24:00,
2013-03-05 16:29:00,42.8,27.7,30.00,NNW,334,7.0,8.0,55,0.00,,,0.00,HR-IXPWINDi_r2_v1.2.,2013-03-05 21:29:00,
2013-03-05 16:34:00,42.5,27.9,30.00,NE,40,2.0,8.0,56,0.00,,,0.00,HR-IXPWINDi_r2_v1.2.,2013-03-05 21:34:00,
2013-03-05 16:39:00,42.1,27.9,30.01,North,3,2.0,8.0,57,0.00,,,0.00,HR-IXPWINDi_r2_v1.2.,2013-03-05 21:39:00,
2013-03-05 16:45:00,41.9,27.3,30.00,NW,318,5.0,7.0,56,0.00,,,0.00,HR-IXPWINDi_r2_v1.2.,2013-03-05 21:45:00,
2013-03-05 16:50:00,41.8,27.7,30.01,NNW,331,5.0,7.0,57,0.00,,,0.00,HR-IXPWINDi_r2_v1.2.,2013-03-05 21:50:00,
2013-03-05 16:55:00,41.6,27.5,30.00,NNW,344,2.0,10.0,57,0.00,,,0.00,HR-IXPWINDi_r2_v1.2.,2013-03-05 21:55:00,
2013-03-05 17:00:00,41.3,27.2,30.01,NNE,13,2.0,10.0,57,0.00,,,0.00,HR-IXPWINDi_r2_v1.2.,2013-03-05 22:00:00,
2013-03-05 17:05:00,41.0,27.3,30.01,NNW,328,3.0,9.0,58,0.00,,,0.00,HR-IXPWINDi_r2_v1.2.,2013-03-05 22:05:00,
2013-03-05 17:10:00,40.7,27.5,30.01,NNW,347,5.0,7.0,59,0.00,,,0.00,HR-IXPWINDi_r2_v1.2.,2013-03-05 22:10:00,
2013-03-05 17:16:00,40.5,27.3,30.01,NW,309,2.0,10.0,59,0.00,,,0.00,HR-IXPWINDi_r2_v1.2.,2013-03-05 22:16:00,
2013-03-05 17:21:00,40.2,27.0,30.01,NNW,344,4.0,10.0,59,0.00,,,0.00,HR-IXPWINDi_r2_v1.2.,2013-03-05 22:21:00,
2013-03-05 17:26:00,39.9,27.1,30.01,NNW,348,4.0,6.0,60,0.00,,,0.00,HR-IXPWINDi_r2_v1.2.,2013-03-05 22:26:00,
2013-03-05 17:31:00,39.5,27.5,30.01,NNW,342,2.0,6.0,62,0.00,,,0.00,HR-IXPWINDi_r2_v1.2.,2013-03-05 22:31:00,
2013-03-05 17:37:00,39.3,27.4,30.01,NNE,13,1.0,6.0,62,0.00,,,0.00,HR-IXPWINDi_r2_v1.2.,2013-03-05 22:37:00,
2013-03-05 17:42:00,39.2,26.9,30.02,SSE,163,1.0,6.0,61,0.00,,,0.00,HR-IXPWINDi_r2_v1.2.,2013-03-05 22:42:00,
2013-03-05 17:47:00,39.2,26.9,30.02,NNW,341,0.0,7.0,61,0.00,,,0.00,HR-IXPWINDi_r2_v1.2.,2013-03-05 22:47:00,
2013-03-05 17:52:00,38.9,27.0,30.02,NE,46,1.0,7.0,62,0.00,,,0.00,HR-IXPWINDi_r2_v1.2.,2013-03-05 22:52:00,
2013-03-05 17:57:00,38.8,27.3,30.02,NNE,17,3.0,6.0,63,0.00,,,0.00,HR-IXPWINDi_r2_v1.2.,2013-03-05 22:57:00,
2013-03-05 18:03:00,38.5,27.0,30.02,East,82,2.0,6.0,63,0.00,,,0.00,HR-IXPWINDi_r2_v1.2.,2013-03-05 23:03:00,
2013-03-05 18:08:00,38.2,27.1,30.02,NNW,341,1.0,4.0,64,0.00,,,0.00,HR-IXPWINDi_r2_v1.2.,2013-03-05 23:08:00,
2013-03-05 18:13:00,38.2,27.1,30.02,WNW,293,2.0,8.0,64,0.00,,,0.00,HR-IXPWINDi_r2_v1.2.,2013-03-05 23:13:00,
2013-03-05 18:18:00,38.0,27.3,30.02,ENE,66,1.0,8.0,65,0.00,,,0.00,HR-IXPWINDi_r2_v1.2.,2013-03-05 23:18:00,
2013-03-05 18:24:00,37.8,27.1,30.02,North,358,0.0,5.0,65,0.00,,,0.00,HR-IXPWINDi_r2_v1.2.,2013-03-05 23:24:00,
2013-03-05 18:29:00,37.5,27.2,30.02,North,1,0.0,5.0,66,0.00,,,0.00,HR-IXPWINDi_r2_v1.2.,2013-03-05 23:29:00,
2013-03-05 18:34:00,37.5,27.2,30.03,North,352,2.0,5.0,66,0.00,,,0.00,HR-IXPWINDi_r2_v1.2.,2013-03-05 23:34:00,
2013-03-05 18:40:00,37.5,27.2,30.03,NNW,331,2.0,6.0,66,0.00,,,0.00,HR-IXPWINDi_r2_v1.2.,2013-03-05 23:40:00,
2013-03-05 18:45:00,37.4,27.1,30.03,North,349,3.0,8.0,66,0.00,,,0.00,HR-IXPWINDi_r2_v1.2.,2013-03-05 23:45:00,
2013-03-05 18:50:00,37.2,27.2,30.03,North,356,2.0,8.0,67,0.00,,,0.00,HR-IXPWINDi_r2_v1.2.,2013-03-05 23:50:00,
2013-03-05 18:55:00,37.2,27.2,30.03,NW,321,4.0,6.0,67,0.00,,,0.00,HR-IXPWINDi_r2_v1.2.,2013-03-05 23:55:00,
2013-03-05 19:01:00,37.0,27.0,30.03,North,352,3.0,5.0,67,0.00,,,0.00,HR-IXPWINDi_r2_v1.2.,2013-03-06 00:01:00,
2013-03-05 19:06:00,36.8,27.2,30.03,NNE,17,1.0,6.0,68,0.00,,,0.00,HR-IXPWINDi_r2_v1.2.,2013-03-06 00:06:00,
2013-03-05 19:11:00,36.6,27.0,30.04,NW,317,2.0,6.0,68,0.00,,,0.00,HR-IXPWINDi_r2_v1.2.,2013-03-06 00:11:00,
2013-03-05 19:16:00,36.4,27.2,30.04,North,356,1.0,4.0,69,0.00,,,0.00,HR-IXPWINDi_r2_v1.2.,2013-03-06 00:16:00,
2013-03-05 19:21:00,36.1,26.9,30.04,West,264,0.0,4.0,69,0.00,,,0.00,HR-IXPWINDi_r2_v1.2.,2013-03-06 00:21:00,
2013-03-05 19:27:00,36.0,27.2,30.04,NW,325,4.0,4.0,70,0.00,,,0.00,HR-IXPWINDi_r2_v1.2.,2013-03-06 00:27:00,
2013-03-05 19:32:00,36.3,27.1,30.04,North,354,1.0,8.0,69,0.00,,,0.00,HR-IXPWINDi_r2_v1.2.,2013-03-06 00:32:00,
2013-03-05 19:37:00,36.3,27.1,30.04,NNW,341,0.0,8.0,69,0.00,,,0.00,HR-IXPWINDi_r2_v1.2.,2013-03-06 00:37:00,
2013-03-05 19:42:00,36.3,27.1,30.05,SE,138,0.0,4.0,69,0.00,,,0.00,HR-IXPWINDi_r2_v1.2.,2013-03-06 00:42:00,
2013-03-05 19:47:00,36.4,27.2,30.05,North,3,1.0,6.0,69,0.00,,,0.00,HR-IXPWINDi_r2_v1.2.,2013-03-06 00:47:00,
2013-03-05 19:53:00,36.4,27.5,30.05,North,2,1.0,6.0,70,0.00,,,0.00,HR-IXPWINDi_r2_v1.2.,2013-03-06 00:53:00,
2013-03-05 19:58:00,36.4,27.5,30.05,NNW,337,1.0,6.0,70,0.00,,,0.00,HR-IXPWINDi_r2_v1.2.,2013-03-06 00:58:00,
2013-03-05 20:03:00,36.3,27.4,30.04,NNW,340,1.0,6.0,70,0.00,,,0.00,HR-IXPWINDi_r2_v1.2.,2013-03-06 01:03:00,
2013-03-05 20:08:00,36.3,27.4,30.05,NNW,338,1.0,6.0,70,0.00,,,0.00,HR-IXPWINDi_r2_v1.2.,2013-03-06 01:08:00,
2013-03-05 20:13:00,36.3,27.4,30.05,North,351,2.0,6.0,70,0.00,,,0.00,HR-IXPWINDi_r2_v1.2.,2013-03-06 01:13:00,
2013-03-05 20:19:00,36.3,27.4,30.05,NNW,342,0.0,4.0,70,0.00,,,0.00,HR-IXPWINDi_r2_v1.2.,2013-03-06 01:19:00,
2013-03-05 20:24:00,36.2,27.3,30.05,West,280,1.0,3.0,70,0.00,,,0.00,HR-IXPWINDi_r2_v1.2.,2013-03-06 01:24:00,
2013-03-05 20:29:00,36.1,27.2,30.05,North,351,0.0,3.0,70,0.00,,,0.00,HR-IXPWINDi_r2_v1.2.,2013-03-06 01:29:00,
2013-03-05 20:34:00,36.1,27.2,30.04,NNW,331,1.0,3.0,70,0.00,,,0.00,HR-IXPWINDi_r2_v1.2.,2013-03-06 01:34:00,
2013-03-05 20:39:00,36.1,27.2,30.04,NNW,342,4.0,5.0,70,0.00,,,0.00,HR-IXPWINDi_r2_v1.2.,2013-03-06 01:39:00,
2013-03-05 20:45:00,36.1,27.2,30.05,NNW,345,2.0,5.0,70,0.00,,,0.00,HR-IXPWINDi_r2_v1.2.,2013-03-06 01:45:00,
2013-03-05 20:50:00,36.0,27.5,30.05,North,2,1.0,5.0,71,0.00,,,0.00,HR-IXPWINDi_r2_v1.2.,2013-03-06 01:50:00,
2013-03-05 20:55:00,36.0,27.5,30.05,NNW,335,4.0,8.0,71,0.00,,,0.00,HR-IXPWINDi_r2_v1.2.,2013-03-06 01:55:00,
2013-03-05 21:00:00,36.0,27.5,30.05,NNW,334,0.0,8.0,71,0.00,,,0.00,HR-IXPWINDi_r2_v1.2.,2013-03-06 02:00:00,
2013-03-05 21:05:00,35.9,27.7,30.05,NW,318,1.0,5.0,72,0.00,,,0.00,HR-IXPWINDi_r2_v1.2.,2013-03-06 02:05:00,
2013-03-05 21:11:00,35.9,27.7,30.05,NNW,345,0.0,3.0,72,0.00,,,0.00,HR-IXPWINDi_r2_v1.2.,2013-03-06 02:11:00,
2013-03-05 21:16:00,35.8,27.6,30.05,NNW,335,0.0,3.0,72,0.00,,,0.00,HR-IXPWINDi_r2_v1.2.,2013-03-06 02:16:00,
2013-03-05 21:21:00,35.8,27.6,30.05,NNW,331,3.0,7.0,72,0.00,,,0.00,HR-IXPWINDi_r2_v1.2.,2013-03-06 02:21:00,
2013-03-05 21:26:00,35.9,27.4,30.05,NNW,344,1.0,7.0,71,0.00,,,0.00,HR-IXPWINDi_r2_v1.2.,2013-03-06 02:26:00,
2013-03-05 21:31:00,35.9,27.7,30.05,NNW,328,1.0,7.0,72,0.00,,,0.00,HR-IXPWINDi_r2_v1.2.,2013-03-06 02:31:00,
2013-03-05 21:37:00,35.8,27.6,30.05,NNW,328,1.0,6.0,72,0.00,,,0.00,HR-IXPWINDi_r2_v1.2.,2013-03-06 02:37:00,
2013-03-05 21:42:00,35.6,27.5,30.05,NNW,342,2.0,6.0,72,0.00,,,0.00,HR-IXPWINDi_r2_v1.2.,2013-03-06 02:42:00,
2013-03-05 21:47:00,35.5,27.4,30.05,NNW,337,3.0,5.0,72,0.00,,,0.00,HR-IXPWINDi_r2_v1.2.,2013-03-06 02:47:00,
2013-03-05 21:52:00,35.5,27.4,30.05,NNE,12,2.0,5.0,72,0.00,,,0.00,HR-IXPWINDi_r2_v1.2.,2013-03-06 02:52:00,
2013-03-05 21:57:00,35.5,27.7,30.05,NNW,340,1.0,6.0,73,0.00,,,0.00,HR-IXPWINDi_r2_v1.2.,2013-03-06 02:57:00,
2013-03-05 22:02:00,35.5,27.7,30.04,NNW,338,2.0,7.0,73,0.00,,,0.00,HR-IXPWINDi_r2_v1.2.,2013-03-06 03:02:00,
2013-03-05 22:08:00,35.4,27.6,30.04,NNW,337,1.0,9.0,73,0.00,,,0.00,HR-IXPWINDi_r2_v1.2.,2013-03-06 03:08:00,
2013-03-05 22:13:00,35.4,27.6,30.05,NNW,348,1.0,9.0,73,0.00,,,0.00,HR-IXPWINDi_r2_v1.2.,2013-03-06 03:13:00,
2013-03-05 22:18:00,35.4,27.6,30.05,NNW,346,4.0,8.0,73,0.00,,,0.00,HR-IXPWINDi_r2_v1.2.,2013-03-06 03:18:00,
2013-03-05 22:23:00,35.4,27.6,30.04,North,352,3.0,7.0,73,0.00,,,0.00,HR-IXPWINDi_r2_v1.2.,2013-03-06 03:23:00,
2013-03-05 22:28:00,35.4,27.6,30.04,North,357,3.0,7.0,73,0.00,,,0.00,HR-IXPWINDi_r2_v1.2.,2013-03-06 03:28:00,
2013-03-05 22:34:00,35.4,27.6,30.04,NNW,341,2.0,5.0,73,0.00,,,0.00,HR-IXPWINDi_r2_v1.2.,2013-03-06 03:34:00,
2013-03-05 22:39:00,35.3,27.8,30.04,WNW,292,1.0,5.0,74,0.00,,,0.00,HR-IXPWINDi_r2_v1.2.,2013-03-06 03:39:00,
2013-03-05 22:44:00,35.3,27.8,30.04,NNW,341,2.0,8.0,74,0.00,,,0.00,HR-IXPWINDi_r2_v1.2.,2013-03-06 03:44:00,
2013-03-05 22:49:00,35.3,27.8,30.03,West,275,3.0,8.0,74,0.00,,,0.00,HR-IXPWINDi_r2_v1.2.,2013-03-06 03:49:00,
2013-03-05 22:55:00,35.3,27.5,30.03,NNW,338,6.0,8.0,73,0.00,,,0.00,HR-IXPWINDi_r2_v1.2.,2013-03-06 03:55:00,
2013-03-05 23:00:00,35.3,27.5,30.03,NNW,335,5.0,8.0,73,0.00,,,0.00,HR-IXPWINDi_r2_v1.2.,2013-03-06 04:00:00,
2013-03-05 23:05:00,35.2,27.7,30.03,NE,47,1.0,8.0,74,0.00,,,0.00,HR-IXPWINDi_r2_v1.2.,2013-03-06 04:05:00,
2013-03-05 23:10:00,35.1,27.6,30.04,WNW,290,1.0,8.0,74,0.00,,,0.00,HR-IXPWINDi_r2_v1.2.,2013-03-06 04:10:00,
2013-03-05 23:15:00,35.1,27.6,30.03,NNW,345,2.0,8.0,74,0.00,,,0.00,HR-IXPWINDi_r2_v1.2.,2013-03-06 04:15:00,
2013-03-05 23:20:00,35.0,27.5,30.03,NW,307,1.0,8.0,74,0.00,,,0.00,HR-IXPWINDi_r2_v1.2.,2013-03-06 04:20:00,
2013-03-05 23:25:00,34.9,27.4,30.03,NNW,334,1.0,7.0,74,0.00,,,0.00,HR-IXPWINDi_r2_v1.2.,2013-03-06 04:25:00,
2013-03-05 23:30:00,34.8,27.7,30.03,NW,321,1.0,7.0,75,0.00,,,0.00,HR-IXPWINDi_r2_v1.2.,2013-03-06 04:30:00,
2013-03-05 23:35:00,34.8,27.7,30.03,NNW,345,6.0,8.0,75,0.00,,,0.00,HR-IXPWINDi_r2_v1.2.,2013-03-06 04:35:00,
2013-03-05 23:41:00,34.7,27.6,30.03,NNW,328,2.0,8.0,75,0.00,,,0.00,HR-IXPWINDi_r2_v1.2.,2013-03-06 04:41:00,
2013-03-05 23:46:00,34.5,27.4,30.03,NNW,344,1.0,6.0,75,0.00,,,0.00,HR-IXPWINDi_r2_v1.2.,2013-03-06 04:46:00,
2013-03-05 23:51:00,34.4,27.6,30.03,NW,325,4.0,5.0,76,0.00,,,0.00,HR-IXPWINDi_r2_v1.2.,2013-03-06 04:51:00,
2013-03-05 23:56:00,34.3,27.5,30.03,NNW,345,2.0,5.0,76,0.00,,,0.00,HR-IXPWINDi_r2_v1.2.,2013-03-06 04:56:00,